TimeEDT,TemperatureF,Dew PointF,Humidity,Sea Level PressureIn,VisibilityMPH,Wind Direction,Wind SpeedMPH,Gust SpeedMPH,PrecipitationIn,Events,Conditions,WindDirDegrees,DateUTC
12:52 AM,55.0,45.0,69,30.06,10.0,Calm,Calm,-,N/A,,Overcast,0,2013-07-25 04:52:00
1:52 AM,54.0,48.0,80,30.06,10.0,Calm,Calm,-,N/A,,Overcast,0,2013-07-25 05:52:00
2:31 AM,55.4,46.4,72,30.06,10.0,North,3.5,-,N/A,,Overcast,360,2013-07-25 06:31:00
2:52 AM,54.0,46.0,75,30.06,10.0,North,3.5,-,N/A,,Overcast,350,2013-07-25 06:52:00
3:52 AM,54.0,46.0,75,30.06,10.0,Calm,Calm,-,N/A,,Overcast,0,2013-07-25 07:52:00
4:43 AM,51.8,44.6,76,30.05,10.0,Calm,Calm,-,N/A,,Scattered Clouds,0,2013-07-25 08:43:00
4:52 AM,50.0,46.0,86,30.06,10.0,Calm,Calm,-,N/A,,Clear,0,2013-07-25 08:52:00
5:33 AM,48.2,44.6,87,30.07,10.0,Calm,Calm,-,N/A,,Mostly Cloudy,0,2013-07-25 09:33:00
5:52 AM,48.0,44.1,86,30.09,10.0,Calm,Calm,-,N/A,,Mostly Cloudy,0,2013-07-25 09:52:00
6:52 AM,52.0,46.0,80,30.10,10.0,Calm,Calm,-,N/A,,Scattered Clouds,0,2013-07-25 10:52:00
7:52 AM,55.0,46.0,72,30.12,10.0,NE,8.1,-,N/A,,Clear,50,2013-07-25 11:52:00
8:52 AM,57.9,44.1,60,30.13,10.0,Variable,3.5,-,N/A,,Clear,0,2013-07-25 12:52:00
9:52 AM,60.1,45.0,57,30.13,10.0,NNW,5.8,-,N/A,,Clear,330,2013-07-25 13:52:00
10:52 AM,62.1,48.0,60,30.14,10.0,Variable,5.8,-,N/A,,Scattered Clouds,0,2013-07-25 14:52:00
11:52 AM,64.0,48.0,56,30.14,10.0,NW,4.6,-,N/A,,Clear,320,2013-07-25 15:52:00
12:52 PM,66.9,48.9,52,30.13,10.0,WNW,4.6,-,N/A,,Clear,300,2013-07-25 16:52:00
1:52 PM,70.0,51.1,51,30.12,10.0,Variable,6.9,-,N/A,,Clear,0,2013-07-25 17:52:00
2:52 PM,70.0,51.1,51,30.11,10.0,Variable,3.5,-,N/A,,Clear,0,2013-07-25 18:52:00
3:52 PM,72.0,51.1,48,30.10,10.0,Variable,4.6,-,N/A,,Clear,0,2013-07-25 19:52:00
4:52 PM,73.0,53.1,49,30.10,10.0,ENE,3.5,-,N/A,,Clear,70,2013-07-25 20:52:00
5:52 PM,72.0,53.1,51,30.12,10.0,Calm,Calm,-,N/A,,Mostly Cloudy,0,2013-07-25 21:52:00
6:52 PM,69.1,55.0,61,30.12,10.0,ESE,3.5,-,N/A,,Clear,110,2013-07-25 22:52:00
7:52 PM,66.0,55.0,68,30.13,10.0,East,3.5,-,N/A,,Clear,80,2013-07-25 23:52:00
8:52 PM,64.9,54.0,68,30.13,10.0,Calm,Calm,-,N/A,,Clear,0,2013-07-26 00:52:00
9:52 PM,62.1,55.9,80,30.14,10.0,Calm,Calm,-,N/A,,Clear,0,2013-07-26 01:52:00
10:52 PM,62.1,57.0,84,30.14,10.0,Calm,Calm,-,N/A,,Clear,0,2013-07-26 02:52:00
11:52 PM,61.0,55.9,83,30.13,10.0,Calm,Calm,-,N/A,,Mostly Cloudy,0,2013-07-26 03:52:00